Location: Jaboat�o
(8.1170°S, 35.0170°W)
Time: 18:54:39
(UTC-03:00)

BlueWalker 3 - Pass Details

Date: 19 June 2024
Orbit: 480 x 491 km, 53.2° (Epoch: 21 July)

Event Time Altitude Azimuth Distance (km) Brightness Sun altitude
Rises 18:03:09 0° 246° (WSW) 2,559 6.2 -12.7°
Reaches altitude 10° 18:06:22 10° 275° (W) 1,668 5.8 -13.4°
Maximum altitude 18:08:05 13° 302° (WNW) 1,500 5.6 -13.8°
Drops below altitude 10° 18:09:48 10° 330° (NNW) 1,658 5.4 -14.2°
Sets 18:12:59 0° 359° (N) 2,527 5.8 -14.9°
